www.pogodaiklimat.ru

Погода и климат >> Архив погоды >> Киргизия >> Токмок


ПОГОДА в Токмоке

  • Прогноз погоды в Токмоке
  • Монитор погоды в Токмоке

АРХИВ ПОГОДЫ в Токмоке

Время (UTC), дата Ветер
(напр.,м/с)
 
Видим.   Явления Облачность Т
(С)
Тd
(С)
f
(%)
Тe
(С)
Тes
(С)
Комфортность P
(гПа)
Po
(гПа)
Тmin
(С)
Tmax
(С)
R
(мм)
R24
(мм)
S
(см)
09 15.08 З 2 50 км 6/6 1000 м
[Cu med, cong]
+27.9 +8.2 29 +28 +33 жарко 1007.0 919.1
12 15.08 З 1 20 км 8/8 1000 м
[Cb cap]
+25.4 +8.6 34 +26 +26 жарко 1008.3 919.5
15 15.08 З 2 н/о 10/10 600 м
[Cb cap]
+21.9 +7.1 38 +23 +23 комфорт 1010.7 920.6 +29.1
18 15.08 штиль 0 н/о 3/0
[Ac cast]
+17.3 +8.4 56 +17 +17 1012.2 920.7 +29.1
21 15.08 штиль 0 н/о 10/0
[Ac und]
+16.5 +8.9 61 +16 +16 1011.4 919.8
00 16.08 штиль 0 50 км 10/0
[Ac und]
+15.5 +9.3 67 +15 +15 1011.9 919.9
03 16.08 штиль 0 50 км 9/0
[Ac und]
+19.2 +6.4 43 +20 +23 1011.2 920.4 +15.3
06 16.08 З 1 50 км 9/0
[Ac und Ci fib]
+22.6 +6.1 34 +23 +35 комфорт 1009.5 919.7 +15.3
09 16.08 З 3 50 км 9/4 1000 м
[Cu hum Ac und Ci fib]
+26.2 +8.0 32 +26 +30 жарко 1007.2 918.8
12 16.08 З 1 20 км 10/8 1000 м
[Cb cap Ac cuf]
+23.0 +7.8 38 +24 +24 комфорт 1008.4 919.0
15 16.08 штиль 0 н/о 10/8 1000 м
[Cb cap Ac cuf]
+21.5 +6.8 39 +22 +22 комфорт 1010.1 920.0 +26.6
18 16.08 штиль 0 н/о 10/0
[Ac und]
+18.8 +9.0 53 +19 +19 1011.2 920.4 +26.6
21 16.08 штиль 0 н/о 10/0
[Ac und]
+16.6 +8.4 58 +17 +17 1011.6 920.0
00 17.08 штиль 0 20 км 10/8
[Cb cap Ac cuf]
+16.0 +9.7 66 +16 +16 1012.8 920.9
03 17.08 В 1 50 км 6/3 1000 м
[Cb calv Ac und]
+16.8 +10.4 66 +18 +21 1013.1 921.5 +15.7
06 17.08 З 3 20 км 8/3 1000 м
[Cb calv Ac lent]
+21.7 +9.2 45 +23 +27 комфорт 1011.8 921.7 +15.7
09 17.08 Ю 3
{13}
20 км слаб. ливневой дождь 10/10 1000 м
[Cb cap]
+13.5 +11.4 87 +12 +12 1016.4 923.5
12 17.08 В 4 50 км {ливн. осадки} 6/1 1000 м
[Cb calv Ac lent Ci fib]
+16.2 +9.5 64 +16 +17 1015.9 923.8
15 17.08 В 2 н/о ясно +14.7 +8.6 67 +14 +14 1015.8 923.3 +22.3
18 17.08 В 3 н/о ясно +13.4 +7.7 68 +12 +12 1015.3 922.4 +22.3 3
21 17.08 В 2 н/о ясно +12.2 +6.5 68 +11 +11 1014.6 921.4
00 18.08 В 1 50 км ясно +11.7 +5.6 66 +12 +12 1014.5 921.1
03 18.08 В 2 50 км 6/0
[Ci]
+18.7 +7.3 47 +20 +25 1012.4 921.3 +11.6
06 18.08 З 1 50 км 8/3 1000 м
[Cb cap Ci]
+26.1 +6.1 28 +26 +37 жарко 1009.5 920.7 +11.6
09 18.08 З 1 20 км 9/9 600 м
[Cb cap]
+26.8 +6.7 28 +26 +28 жарко 1009.3 920.8
12 18.08 штиль 0 20 км 6/3 600 м
[Cb calv Ci ing]
+25.2 +6.1 29 +25 +27 комфорт 1011.3 922.1
15 18.08 штиль 0 н/о 4/4
[Sc]
+19.5 +9.3 52 +20 +20 1014.6 922.6 +28.7
18 18.08 В 1 н/о ясно +16.2 +9.0 62 +17 +17 1017.0 924.8 +25.7
21 18.08 В 1 н/о ясно +14.8 +7.6 62 +15 +15 1017.0 924.4
00 19.08 В 2 50 км 8/0
[Ac lent]
+13.3 +7.1 66 +13 +13 1018.1 924.8
03 19.08 В 2 50 км 8/4 1000 м
[Cu hum Ac cast]
+18.6 +8.4 51 +20 +21 1016.6 925.2 +13.1
06 19.08 Ю 2 50 км 6/4 1000 м
[Cu hum Ci fib]
+27.8 +8.1 29 +28 +36 жарко 1013.1 924.6 +13.1
09 19.08 СЗ 1 50 км в посл. час ливневой дождь 9/8 1000 м
[Cb cap Ci fib]
+25.2 +5.5 28 +25 +27 комфорт 1014.3 924.9
12 19.08 штиль 0 50 км {ливн. осадки} 9/4 1000 м
[Cu hum Ac cuf]
+25.4 +7.3 32 +25 +26 комфорт 1014.6 925.3
15 19.08 штиль 0 н/о 6/0
[Ac cuf]
+20.6 +8.6 46 +22 +22 комфорт 1017.8 926.8 +28.1 0.0
18 19.08 В 2 н/о ясно +16.4 +8.6 60 +17 +17 1019.0 926.6 +28.1 0.0
21 19.08 В 2 н/о н/о +14.8 +7.6 62 +15 +15 1017.9 925.2
00 20.08 В 3 50 км ясно +13.8 +6.2 60 +13 +13 1018.5 925.4
03 20.08 В 2 50 км ясно +21.1 +6.8 39 +22 +27 комфорт 1016.0 925.3 +13.5
06 20.08 З 2 50 км 1/1 1000 м
[Cu hum]
+27.9 +4.6 23 +27 +40 жарко 1012.8 924.3 +13.5
09 20.08 З 2 50 км 6/3 1000 м
[Cb calv Ac und]
+29.2 +5.9 23 +28 +34 жарко 1011.4 923.4
12 20.08 З 3 50 км 8/3 1000 м
[Cb calv Ac und]
+28.1 +8.1 28 +28 +28 жарко 1012.0 923.6
15 20.08 штиль 0 н/о ясно +21.7 +9.2 45 +23 +23 комфорт 1014.6 924.3 +30.3
18 20.08 В 2 н/о ясно +18.0 +7.6 51 +19 +19 1015.8 924.2 +30.3
21 20.08 В 2 н/о ясно +16.6 +7.7 56 +17 +17 1014.8 922.9
00 21.08 В 2 50 км ясно +16.0 +7.6 57 +16 +16 1014.2 922.2
03 21.08 В 2 50 км ясно +23.4 +9.4 41 +25 +30 комфорт 1011.4 921.8 +15.8
06 21.08 ЮЗ 1 50 км ясно +30.1 +7.3 24 +29 +47 жарко 1008.2 920.7 +15.8
09 21.08 З 3 50 км 1/1 1000 м
[Cu hum]
+31.7 +7.1 22 +30 +40 жарко 1006.9 920.0
12 21.08 штиль 0 20 км 3/3 1000 м
[Cb cap]
+28.8 +9.5 30 +29 +31 жарко 1007.7 920.0
15 21.08 штиль 0 н/о ясно +21.9 +9.4 45 +23 +23 комфорт 1010.2 920.4 +32.5
18 21.08 В 2 н/о ясно +19.4 +8.6 50 +21 +21 комфорт 1011.3 920.5 +32.5
21 21.08 В 2 н/о ясно +18.2 +7.8 51 +19 +19 1010.3 919.4
00 22.08 В 3 50 км ясно +18.4 +7.4 49 +19 +19 1009.2 918.8
03 22.08 В 4 50 км ясно +24.0 +9.3 39 +25 +28 комфорт 1007.3 918.3 +18.0
06 22.08 Ю 2 50 км 3/3 1000 м
[Cu hum]
+30.8 +10.4 28 +31 +41 жарко 1004.0 917.2 +18.0

 

Местоположение метеостанции Токмок (Чуйская область, Киргизия): широта 42.83 долгота 75.28 высота над уровнем моря 817 м.

В архиве по умолчанию представлена погода в Токмоке за последнюю неделю. Архивные данные за месяц целиком и за предыдущие месяцы, начиная с января 2011 года, Вы можете получить, выбрав интересующий диапазон дат из раскрывающегося списка и нажав кнопку "Ввод!".


*Определитесь, кто Вы:
робот инопланетянин человек

Внимание! Время в таблицах - всемирное. Для получения местного времени необходимо прибавить поправку, которая равна 5 ч.

Смотрите также архив погоды в соседних городах и на ближайших метеорологических станциях:

Погода в Иссык-Ате (город Бишкек, Киргизия) (34 км)
Погода в Бишкеке (город Бишкек, Киргизия) (61 км)
Погода в Кордае (Жамбылская область, Казахстан) (63 км)
Погода в Байтике (Чуйская область, Киргизия) (67 км)
Погода в Отаре (Жамбылская область, Казахстан) (78 км)
Погода в Иссык-Куле (Иссык-Кульская область, Киргизия) (84 км)
Погода в Узынагаше (Алматинская область, Казахстан) (88 км)
Погода в Бериктасе (Жамбылская область, Казахстан) (88 км)
Погода в Ынтымаке (Алматинская область, Казахстан) (95 км)
Погода в Яны-Жере (Чуйская область, Киргизия) (106 км)

Пояснения к столбцам:

Ветер - указаны скорость ветра в м/с - средняя за 10 мин, порывы в срок и между сроками (в фигурных скобках) и направление, откуда дует ветер: С - северный, СВ - северо-восточный, В - восточный, ЮВ - юго-восточный, Ю - южный, ЮЗ - юго-западный, З - западный, СЗ - северо-западный.
Видимость - горизонтальная дальность видимости в метрах или километрах. При видимости от 1 до 10 км при отсутствии осадков обычно наблюдается дымка, при ухудшении видимости до 1 км и менее - туман. В сухую погоду видимость может ухудшаться дымом, пылью или мглою.
Явления - указаны атмосферные явления, наблюдавшиеся в срок или в последний час перед сроком; фигурными скобками обозначены явления, наблюдавшиеся между сроками (за 1-3 часа до срока); квадратными скобками обозначены град или гололедные отложения с указанием их диаметра в мм.
Облачность - указаны через наклонную черту общая и нижняя облачность в баллах и высота нижней границы облаков в метрах; квадратными скобками обозначены формы облаков: Ci - перистые, Cs - перисто-слоистые, Cc - перисто-кучевые, Ac - высококучевые, As - высокослоистые, Sc - слоисто-кучевые, Ns - слоисто-дождевые, Cu - кучевые, Cb - кучево-дождевые. Подробнее классификацию облаков см. в Атласе облаков (PDF).
T - Температура воздуха - температура, измеренная на высоте 2 м над землей.
Td - Температура точки росы - температура, при понижении до которой содержащийся в воздухе водяной пар достигнет насыщения.
f - Относительная влажность воздуха - влажноcть воздуха, измеренная на высоте 2 м над землей.
Te - Эффективная температура - температура, которую ощущает одетый по сезону человек в тени. Характеристика душности погоды. При расчете учитывается влияние влажности воздуха и скорости ветра на теплоощущения человека.
Tes - Эффективная температура на солнце - температура, которую ощущает человек, с поправкой на солнечный нагрев. Характеристика знойности погоды. Зависит от высоты солнца над горизонтом, облачности и скорости ветра. Ночью, в пасмурную погоду, а также при ветре 12 м/с и более поправка равна нулю.
P - Атмосферное давление - приведенное к уровню моря атмосферное давление.
Po - Атмосферное давление - измеренное на уровне метеостанции атмосферное давление.
Tmin - Минимальная температура - минимум температуры воздуха на высоте 2 м над землей.
Tmax - Максимальная температура - максимум температуры воздуха на высоте 2 м над землей.
R - Количество осадков - Количество выпавших осадков за период времени, мм. При наведении курсора мыши на число - период времени, за который выпало указанное количество осадков.
R24 - Количество осадков - Количество выпавших осадков за 24 часа, мм.
S - Снежный покров - Высота снежного покрова, см. При наведении курсора мыши на число - состояние снежного покрова и степень покрытия местности в баллах.